Regional Weather Roundup
Issued by NWS

Home | Current Version | Previous Version | Text Only | Print | Product List | Glossary Off
Versions: 1 2 3 4 5 6 7 8 9 10 11 12 13 14 15 16 17 18 19 20 21 22 23 24 25 26 27 28 29 30 31 32 33 34 35 36 37 38 39 40 41 42 43 44 45 46 47 48 49 50

000
ASUS43 KMPX 201310
RWRMN
WEATHER ROUNDUP FOR MINNESOTA
NATIONAL WEATHER SERVICE TWIN CITIES/CHANHASSEN MN
800 AM CDT SUN AUG 20 2017


NOTE: "FAIR" INDICATES FEW OR NO CLOUDS BELOW 12,000 FEET WITH NO
SIGNIFICANT WEATHER AND/OR OBSTRUCTIONS TO VISIBILITY. N/A MEANS
CURRENT SKY AND/OR WEATHER CONDITIONS ARE NOT AVAILABLE.

MNZ060>063-068>070-201400-
   Twin Cities Metro

CITY           SKY/WX    TMP DP  RH WIND       PRES   REMARKS
TWIN CITIES    CLOUDY    67  62  84 SE5       29.90R
ST PAUL        CLOUDY    66  64  93 SE6       29.90R
CRYSTAL        MOSUNNY   67  61  81 VRB3      29.88R
BLAINE         CLOUDY    68  66  94 S6        29.89R
LAKEVILLE      PTSUNNY   64  64 100 S5        29.90S
EDEN PRAIRIE   PTSUNNY   69  64  84 S3        29.89R
SOUTH ST PAUL  CLOUDY    66  64  93 CALM      29.90S
LAKE ELMO      FAIR      66  63  88 S8        29.91S
$$
MNZ001>005-007-008-013>017-022>024-027-028-201400-
   Northwest Minnesota

CITY           SKY/WX    TMP DP  RH WIND       PRES   REMARKS
BEMIDJI        SUNNY     63  59  88 NW14      29.87R
HALLOCK        MOSUNNY   61  50  67 NW9       29.89R
ROSEAU         MOSUNNY   63  57  82 W10       29.85R
WARROAD        SUNNY     63  55  77 W8        29.84R
THIEF RVR FALL MOSUNNY   62  52  69 NW9       29.92R
CROOKSTON      CLOUDY    61  52  72 NW10      29.92R
FOSSTON        CLOUDY    61  54  77 NW10G20   29.91R
DETROIT LAKES  MOSUNNY   61  55  82 NW12      29.93R
MOORHEAD       CLOUDY    61  54  77 NW12      29.93R
PARK RAPIDS    MOSUNNY   65  61  87 NW9       29.88R
MAHNOMEN       FAIR      59  55  87 NW7       29.92R
$$
MNZ006-009>011-018-025>026-201400-
   North Central Minnesota

CITY           SKY/WX    TMP DP  RH WIND       PRES   REMARKS
BAUDETTE       MOSUNNY   64  59  83 W8        29.82R
FLAG ISLAND    HAZE      66  54  63 NW10      29.80R VSB 3/4
INTL FALLS     CLOUDY    65  62  90 SW7       29.78R
WASKISH        PTSUNNY   64  61  88 W14       29.85R
BIG FORK       CLOUDY    64  63  94 SW5       29.83R
LONGVILLE      CLOUDY    64  63  94 W8        29.86R
GRAND RAPIDS   MOSUNNY   64  62  93 S3        29.86R
CRANE LAKE     MOSUNNY   63  61  94 S5        29.81R
ORR            PTSUNNY   63  59  88 S3        29.79R
COOK           SUNNY     64  63  94 S6        29.82S
WALKER         FAIR      64  61  89 NW9G17    29.87R
$$
MNZ012-019>021-037-201400-
   Northeast Minnesota

CITY           SKY/WX    TMP DP  RH WIND       PRES   REMARKS
DULUTH         SUNNY     64  63  96 SW15      29.87R
ELY            SUNNY     64  63  94 S3        29.83S
HIBBING        CLOUDY    57  57 100 CALM      29.84S FOG
EVELETH        MOSUNNY   63  61  93 S5        29.85S
DULUTH HARBOR  SUNNY     64  63  94 W3        29.86S
TWO HARBORS    SUNNY     63  57  82 CALM      29.84F HAZE
GRAND MARAIS     N/A     63  61  93 NE3       29.85F
G MARAIS ARPRT PTSUNNY   63  55  77 CALM      29.89S
$$
MNZ029>031-032-039>041-046>048-054>057-064-201400-
   West Central Minnesota

CITY           SKY/WX    TMP DP  RH WIND       PRES   REMARKS
FERGUS FALLS   MOSUNNY   61  61 100 NW8       29.93R
WHEATON        CLOUDY    63  55  77 NW9       29.94S
MORRIS         MOSUNNY   64  61  88 NW15      29.90R
ALEXANDRIA     CLOUDY    65  63  93 NW13      29.92R
ELBOW LAKE     FAIR      61  59  91 W12       29.92R
WADENA         MOSUNNY   64  64 100 NW6       29.89R
GLENWOOD       MOSUNNY   64  63  94 NW10      29.90S
APPLETON       CLOUDY    66  61  82 NW8       29.90R
BENSON         PTSUNNY   64  63  94 N7        29.90S
ORTONVILLE     PTSUNNY   64  57  77 MISG      29.91R
MADISON        CLOUDY    70  70 100 NW7       29.91R
WILLMAR        FAIR      66  64  94 CALM      29.90S
$$
MNZ033>034-036-042>043-049>051-058-059-201400-
   Central Minnesota

CITY           SKY/WX    TMP DP  RH WIND       PRES   REMARKS
ST CLOUD       SUNNY     64  64 100 S6        29.88S
SAUK CENTRE    FAIR      65  64  94 W8        29.89S
PAYNESVILLE    MOSUNNY   64  64  97 CALM      29.89S FOG
AITKIN         SUNNY     66  63  88 S7        29.84S
PINE RIVER     PTSUNNY   63  63 100 W5        29.90R
BRAINERD       SUNNY     65  63  93 SW9       29.87R
STAPLES        SUNNY     64  64 100 W8        29.89R
LONG PRAIRIE   FAIR      63  63 100 SW5       29.90R
LITTLE FALLS   CLOUDY    63  61  94 CALM      29.88S
LITCHFIELD     SUNNY     68  66  94 CALM      29.91R
BUFFALO        MOSUNNY   65  62  89 S3        29.91R
MAPLE LAKE     MOSUNNY   66  65  97 CALM      29.91R
HUTCHINSON     MOSUNNY   65  65  98 CALM      29.93R FOG
$$
MNZ037-044-045-052-053-201400-
   East Central Minnesota

CITY           SKY/WX    TMP DP  RH WIND       PRES   REMARKS
PRINCETON      SUNNY     66  64  94 S3        29.89R
MORA           CLOUDY    63  63 100 S3        29.90R
CAMBRIDGE      CLOUDY    68  64  88 S5        29.90R
RUSH CITY      CLOUDY    64  62  92 S5        29.89R FOG
MOOSE LAKE     CLOUDY    63  61  94 SW6       29.86S
HINCKLEY       CLOUDY    64  63  94 SW5       29.89S
CLOQUET        CLOUDY    63  61  94 S8        29.87S
MCGREGOR       CLOUDY    63  63 100 S5        29.86F
$$
MNZ071>073-080-081-089-090-097-098-201400-
   Southwest Minnesota

CITY           SKY/WX    TMP DP  RH WIND       PRES   REMARKS
MONTEVIDEO     SUNNY     66  66 100 NW5       29.90R
GRANITE FALLS  SUNNY     65  65  99 CALM      29.91S
CANBY          PTSUNNY   68  64  86 CALM      29.93R
MARSHALL       SUNNY     66  63  90 S7        29.92R
REDWOOD FALLS  SUNNY     66  64  93 S7        29.91R
OLIVIA         SUNNY     64  63  94 SE10      29.90R FOG
PIPESTONE      SUNNY     66  63  88 CALM      29.95R
WINDOM         CLOUDY    70  63  78 SW6       29.94R
WORTHINGTON    SUNNY     70  62  76 SW9       29.95R
JACKSON        PTSUNNY   68  61  77 CALM      29.94S
TRACY          SUNNY     65  65 100 CALM      29.95R
SLAYTON        MOSUNNY   64  58  83 S3        29.94R
$$
MNZ065>067-074>077-082>085-091>093-201400-
   South Central Minnesota

CITY           SKY/WX    TMP DP  RH WIND       PRES   REMARKS
MANKATO        PTSUNNY   67  64  90 S7        29.93R
NEW ULM        SUNNY     66  64  94 SW7       29.92R
ST JAMES       CLOUDY    64  63  94 CALM      29.94R
GLENCOE        CLOUDY    67  67 100 CALM      29.91R
FARIBAULT      CLOUDY    66  64  94 CALM      29.93R
OWATONNA       CLOUDY    66  63  88 S9        29.93R
WASECA         CLOUDY    64  61  88 S5        29.94R
ALBERT LEA     CLOUDY    68  66  94 S6        29.94R
$$
MNZ078>079-086>088-094>096-201400-
   Southeast Minnesota

CITY           SKY/WX    TMP DP  RH WIND       PRES   REMARKS
ROCHESTER      CLOUDY    64  63  96 S9        29.95R
RED WING       CLOUDY    68  61  77 SE6       29.90S
STANTON        PTSUNNY   68  64  85 SW5       29.90R
DODGE CENTER   CLOUDY    64  63  94 S7        29.94R
WINONA         CLOUDY    64  63  94 SE7       29.94R
AUSTIN         CLOUDY    64  63  94 S5        29.95R
PRESTON        CLOUDY    63  60  90 S8        29.96R
$$
ABBREVIATIONS USED IN REMARKS
   TC - TEMPERATURES IN CELSIUS
  WCI - WIND CHILL INDEX
   HX - HEAT INDEX
  VSB - VISIBILITY
$$




USA.gov is the U.S. government's official web portal to all federal, state and local government web resources and services.